Location: Bottens
(46.6171°N, 6.6605°E)
Time: 01:56:45
(UTC+00:00)

NPP - Pass Details

Date: 20 June 2021
Orbit: 826 x 828 km, 98.7° (Epoch: 25 July)

Event Time Altitude Azimuth Distance (km) Brightness Sun altitude
Rises 01:24:29 0° 14° (NNE) 3,379 8.5 -15.7°
Reaches altitude 10° 01:26:51 10° 15° (NNE) 2,441 7.4 -15.5°
Maximum altitude 01:32:16 85° 105° (ESE) 836 3.7 -15.1°
Enters shadow 01:35:58 21° 193° (SSW) 1,771 4.8 -14.8°
